Location: D�pe
(52.6057°N, 8.1808°E)
Time: 01:42:54
(UTC+00:00)

Cosmos 2297 Rocket - Pass Details

Date: 29 October 2020
Orbit: 838 x 845 km, 71.0° (Epoch: 23 November)

Event Time Altitude Azimuth Distance (km) Brightness Sun altitude
Rises 17:29:18 0° 326° (NW) 3,417 5.8 -13.7°
Reaches altitude 10° 17:31:48 10° 322° (NW) 2,477 5.1 -14.0°
Maximum altitude 17:37:18 52° 248° (WSW) 1,045 3.1 -14.9°
Drops below altitude 10° 17:42:45 10° 173° (S) 2,459 4.6 -15.7°
Sets 17:45:14 0° 168° (SSE) 3,389 5.2 -16.1°
